Weather History for KMIC - April, 2013

Change the Weather History Date:

Sunday, April 28, 2013

  Actual Average Record
Temperature  
Mean Temperature 66 °F -  
Max Temperature 82 °F 63 °F 90 °F (2004)
Min Temperature 52 °F 39 °F 27 °F (2008)
Cooling Degree Days 2    
Growing Degree Days 16 (Base 50)    
Moisture  
Dew Point 45 °F    
Average Humidity 53    
Maximum Humidity 93    
Minimum Humidity 27    
Precipitation  
Precipitation 0.10 in - - ()
Sea Level Pressure  
Sea Level Pressure 29.75 in    
Wind  
Wind Speed 12 mph (South)    
Max Wind Speed 18 mph    
Max Gust Speed 29 mph    
Visibility 10 miles    
Events Rain    
Averages and records for this station are not official NWS values.
T = Trace of Precipitation, MM = Missing Value Source: NWS Daily Summary

Daily Weather History Graph

Daily Weather History Graph

Search for Another Location

Airport or City:

Trip Planner

Search our weather history database for the weather conditions in past years. The results will help you decide how hot, cold, wet, or windy it might be!

Date:

Astronomy

Apr. 28, 2013 Rise Set
Actual Time 6:06 AM CDT 8:15 PM CDT
Civil Twilight 5:34 AM CDT 8:47 PM CDT
Nautical Twilight 4:55 AM CDT 9:27 PM CDT
Astronomical Twilight 4:11 AM CDT 10:11 PM CDT
Moon 11:51 PM CDT (4/28) 8:18 AM CDT (4/28)
Length of Visible Light 15h 13m
Length of Day
14h 09m
Waning Gibbous, 88% of the Moon is Illuminated
Apr 28
Waning Gibbous
May 2
Last Quarter
May 9
New
May 17
First Quarter
May 24
Full

Hourly Weather History & Observations

Time (CDT) Temp. Dew Point Humidity Pressure Visibility Wind Dir Wind Speed Gust Speed Precip Events Conditions
12:53 AM 60.1 °F 44.1 °F 55% 29.87 in 10.0 mi South 15.0 mph - N/A   Clear
1:53 AM 57.9 °F 44.1 °F 60% 29.86 in 10.0 mi South 10.4 mph - N/A   Clear
2:53 AM 57.0 °F 44.1 °F 62% 29.86 in 10.0 mi South 13.8 mph - N/A   Clear
3:53 AM 55.0 °F 44.1 °F 67% 29.85 in 10.0 mi South 15.0 mph 20.7 mph N/A   Clear
4:53 AM 53.1 °F 44.1 °F 71% 29.85 in 10.0 mi South 10.4 mph - N/A   Clear
5:53 AM 52.0 °F 44.1 °F 74% 29.84 in 10.0 mi South 10.4 mph - N/A   Clear
6:53 AM 52.0 °F 44.1 °F 74% 29.82 in 10.0 mi SSE 10.4 mph - N/A   Clear
7:53 AM 55.0 °F 45.0 °F 69% 29.81 in 10.0 mi South 9.2 mph - N/A   Clear
8:53 AM 59.0 °F 45.0 °F 60% 29.80 in 10.0 mi South 13.8 mph 18.4 mph N/A   Clear
9:53 AM 64.0 °F 45.0 °F 50% 29.77 in 10.0 mi South 15.0 mph 23.0 mph N/A   Clear
10:53 AM 69.1 °F 45.0 °F 42% 29.75 in 10.0 mi South 13.8 mph - N/A   Clear
11:53 AM 71.1 °F 44.1 °F 38% 29.73 in 10.0 mi South 18.4 mph 28.8 mph N/A   Clear
12:53 PM 73.9 °F 44.1 °F 34% 29.71 in 10.0 mi South 18.4 mph 24.2 mph N/A   Clear
1:53 PM 77.0 °F 45.0 °F 32% 29.70 in 10.0 mi South 16.1 mph 27.6 mph N/A   Clear
2:53 PM 78.1 °F 46.0 °F 32% 29.69 in 10.0 mi SSW 12.7 mph 21.9 mph N/A   Clear
3:53 PM 80.1 °F 45.0 °F 29% 29.66 in 10.0 mi South 17.3 mph 23.0 mph N/A   Clear
4:53 PM 81.0 °F 44.1 °F 27% 29.64 in 10.0 mi SSW 10.4 mph - N/A   Clear
5:53 PM 75.9 °F 46.9 °F 36% 29.64 in 9.0 mi SSW 9.2 mph - 0.00 in Rain Light Rain
6:53 PM 75.0 °F 48.0 °F 38% 29.64 in 10.0 mi WNW 6.9 mph - 0.00 in   Mostly Cloudy
7:53 PM 70.0 °F 43.0 °F 38% 29.68 in 10.0 mi North 13.8 mph - N/A   Partly Cloudy
8:53 PM 68.0 °F 42.1 °F 39% 29.71 in 10.0 mi NNW 11.5 mph - N/A   Overcast
9:53 PM 60.1 °F 50.0 °F 69% 29.75 in 4.0 mi Calm Calm - 0.08 in Rain Rain
10:53 PM 55.0 °F 53.1 °F 93% 29.73 in 10.0 mi Calm Calm - 0.02 in   Clear
11:53 PM 53.1 °F 51.1 °F 93% 29.74 in 10.0 mi Calm Calm - N/A   Partly Cloudy